Time,TemperatureF,DewpointF,PressureIn,WindDirection,WindDirectionDegrees,WindSpeedMPH,WindSpeedGustMPH,Humidity,HourlyPrecipIn,Conditions,Clouds,dailyrainin,SoftwareType,DateUTC
2013-08-20 00:00:00,69.8,65.0,30.04,South,186,2.0,3.0,85,0.00,,,0.00,weatherlink.com 1.10,2013-08-20 05:00:00,
2013-08-20 00:15:00,69.6,65.0,30.03,South,186,0.0,4.0,85,0.00,,,0.00,weatherlink.com 1.10,2013-08-20 05:15:00,
2013-08-20 00:30:00,69.4,65.0,30.04,South,186,0.0,4.0,85,0.00,,,0.00,weatherlink.com 1.10,2013-08-20 05:30:00,
2013-08-20 00:45:00,69.2,65.0,30.04,South,186,0.0,2.0,86,0.00,,,0.00,weatherlink.com 1.10,2013-08-20 05:45:00,
2013-08-20 01:00:00,68.9,65.0,30.03,South,186,0.0,4.0,86,0.00,,,0.00,weatherlink.com 1.10,2013-08-20 06:00:00,
2013-08-20 01:15:00,68.6,64.0,30.03,South,186,0.0,2.0,86,0.00,,,0.00,weatherlink.com 1.10,2013-08-20 06:15:00,
2013-08-20 01:30:00,68.4,64.0,30.03,South,186,0.0,1.0,87,0.00,,,0.00,weatherlink.com 1.10,2013-08-20 06:30:00,
2013-08-20 01:45:00,68.1,64.0,30.03,South,186,0.0,1.0,87,0.00,,,0.00,weatherlink.com 1.10,2013-08-20 06:45:00,
2013-08-20 02:00:00,68.0,64.0,30.02,South,186,0.0,1.0,87,0.00,,,0.00,weatherlink.com 1.10,2013-08-20 07:00:00,
2013-08-20 02:15:00,67.6,64.0,30.02,South,186,0.0,1.0,87,0.00,,,0.00,weatherlink.com 1.10,2013-08-20 07:15:00,
2013-08-20 02:30:00,66.7,63.0,30.02,South,186,1.0,1.0,89,0.00,,,0.00,weatherlink.com 1.10,2013-08-20 07:30:00,
2013-08-20 02:45:00,66.4,64.0,30.02,South,186,0.0,1.0,91,0.00,,,0.00,weatherlink.com 1.10,2013-08-20 07:45:00,
2013-08-20 03:00:00,66.8,64.0,30.02,South,186,0.0,3.0,90,0.00,,,0.00,weatherlink.com 1.10,2013-08-20 08:00:00,
2013-08-20 03:15:00,67.3,64.0,30.03,South,186,0.0,2.0,89,0.00,,,0.00,weatherlink.com 1.10,2013-08-20 08:15:00,
2013-08-20 03:30:00,67.7,64.0,30.03,South,186,0.0,4.0,89,0.00,,,0.00,weatherlink.com 1.10,2013-08-20 08:30:00,
2013-08-20 03:45:00,67.4,64.0,30.03,South,186,0.0,1.0,88,0.00,,,0.00,weatherlink.com 1.10,2013-08-20 08:45:00,
2013-08-20 04:00:00,66.4,63.0,30.03,South,186,0.0,1.0,89,0.00,,,0.00,weatherlink.com 1.10,2013-08-20 09:00:00,
2013-08-20 04:15:00,65.9,63.0,30.03,South,186,0.0,0.0,91,0.00,,,0.00,weatherlink.com 1.10,2013-08-20 09:15:00,
2013-08-20 04:30:00,65.3,63.0,30.03,South,186,0.0,0.0,92,0.00,,,0.00,weatherlink.com 1.10,2013-08-20 09:30:00,
2013-08-20 04:45:00,64.8,63.0,30.03,South,186,0.0,0.0,92,0.00,,,0.00,weatherlink.com 1.10,2013-08-20 09:45:00,
2013-08-20 05:00:00,64.5,63.0,30.04,South,186,0.0,1.0,93,0.00,,,0.00,weatherlink.com 1.10,2013-08-20 10:00:00,
2013-08-20 05:15:00,64.5,63.0,30.04,South,186,0.0,1.0,93,0.00,,,0.00,weatherlink.com 1.10,2013-08-20 10:15:00,
2013-08-20 05:30:00,64.5,63.0,30.04,South,186,0.0,0.0,93,0.00,,,0.00,weatherlink.com 1.10,2013-08-20 10:30:00,
2013-08-20 05:45:00,64.5,63.0,30.05,South,186,0.0,0.0,93,0.00,,,0.00,weatherlink.com 1.10,2013-08-20 10:45:00,
2013-08-20 06:00:00,64.2,62.0,30.05,South,186,0.0,1.0,92,0.00,,,0.00,weatherlink.com 1.10,2013-08-20 11:00:00,
2013-08-20 06:15:00,64.5,63.0,30.05,South,186,3.0,5.0,93,0.00,,,0.00,weatherlink.com 1.10,2013-08-20 11:15:00,
2013-08-20 06:30:00,64.8,63.0,30.05,South,186,0.0,1.0,92,0.00,,,0.00,weatherlink.com 1.10,2013-08-20 11:30:00,
2013-08-20 06:45:00,64.8,62.0,30.06,South,186,0.0,1.0,91,0.00,,,0.00,weatherlink.com 1.10,2013-08-20 11:45:00,
2013-08-20 07:00:00,65.1,63.0,30.06,South,186,0.0,1.0,91,0.00,,,0.00,weatherlink.com 1.10,2013-08-20 12:00:00,
2013-08-20 07:15:00,65.8,63.0,30.07,South,186,1.0,3.0,91,0.00,,,0.00,weatherlink.com 1.10,2013-08-20 12:15:00,
2013-08-20 07:30:00,66.4,64.0,30.07,South,186,1.0,4.0,90,0.00,,,0.00,weatherlink.com 1.10,2013-08-20 12:30:00,
2013-08-20 07:45:00,67.2,64.0,30.07,South,186,0.0,4.0,89,0.00,,,0.00,weatherlink.com 1.10,2013-08-20 12:45:00,
2013-08-20 08:00:00,68.0,64.0,30.07,South,186,0.0,4.0,88,0.00,,,0.00,weatherlink.com 1.10,2013-08-20 13:00:00,
2013-08-20 08:15:00,69.3,65.0,30.08,South,186,5.0,6.0,87,0.00,,,0.00,weatherlink.com 1.10,2013-08-20 13:15:00,
2013-08-20 08:30:00,70.8,66.0,30.08,South,186,2.0,6.0,84,0.00,,,0.00,weatherlink.com 1.10,2013-08-20 13:30:00,
2013-08-20 08:46:00,71.9,66.0,30.08,South,182,8.0,9.0,82,0.00,,,0.00,weatherlink.com 1.10,2013-08-20 13:46:00,
2013-08-20 09:01:00,73.3,67.0,30.08,SSE,160,5.0,7.0,81,0.00,,,0.00,weatherlink.com 1.10,2013-08-20 14:01:00,
2013-08-20 09:16:00,74.6,67.0,30.08,SSE,150,3.0,8.0,78,0.00,,,0.00,weatherlink.com 1.10,2013-08-20 14:16:00,
2013-08-20 09:31:00,75.8,68.0,30.08,SSE,164,2.0,8.0,77,0.00,,,0.00,weatherlink.com 1.10,2013-08-20 14:31:00,
2013-08-20 09:46:00,77.0,69.0,30.08,SSE,163,5.0,10.0,75,0.00,,,0.00,weatherlink.com 1.10,2013-08-20 14:46:00,
2013-08-20 10:01:00,78.0,69.0,30.08,SSE,167,5.0,9.0,73,0.00,,,0.00,weatherlink.com 1.10,2013-08-20 15:01:00,
2013-08-20 10:16:00,78.8,69.0,30.08,SSE,167,2.0,9.0,71,0.00,,,0.00,weatherlink.com 1.10,2013-08-20 15:16:00,
2013-08-20 10:31:00,79.6,69.0,30.08,South,169,3.0,8.0,69,0.00,,,0.00,weatherlink.com 1.10,2013-08-20 15:31:00,
2013-08-20 10:46:00,80.3,69.0,30.08,SSE,153,3.0,8.0,68,0.00,,,0.00,weatherlink.com 1.10,2013-08-20 15:46:00,
2013-08-20 11:01:00,81.5,69.0,30.08,SE,142,3.0,9.0,65,0.00,,,0.00,weatherlink.com 1.10,2013-08-20 16:01:00,
2013-08-20 11:16:00,81.6,68.0,30.07,West,279,5.0,11.0,63,0.00,,,0.00,weatherlink.com 1.10,2013-08-20 16:16:00,
2013-08-20 11:31:00,82.6,68.0,30.07,SE,136,5.0,9.0,62,0.00,,,0.00,weatherlink.com 1.10,2013-08-20 16:31:00,
2013-08-20 11:46:00,83.3,68.0,30.07,WSW,254,4.0,11.0,60,0.00,,,0.00,weatherlink.com 1.10,2013-08-20 16:46:00,
2013-08-20 12:01:00,83.9,68.0,30.07,SE,132,7.0,10.0,59,0.00,,,0.00,weatherlink.com 1.10,2013-08-20 17:01:00,
2013-08-20 12:16:00,84.2,67.0,30.06,South,180,8.0,8.0,57,0.00,,,0.00,weatherlink.com 1.10,2013-08-20 17:16:00,
2013-08-20 12:31:00,83.2,67.0,30.06,SSW,202,3.0,10.0,58,0.00,,,0.00,weatherlink.com 1.10,2013-08-20 17:31:00,
2013-08-20 12:46:00,84.6,68.0,30.05,SE,141,8.0,11.0,57,0.00,,,0.00,weatherlink.com 1.10,2013-08-20 17:46:00,
2013-08-20 13:01:00,84.7,67.0,30.05,ESE,117,4.0,14.0,55,0.00,,,0.00,weatherlink.com 1.10,2013-08-20 18:01:00,
2013-08-20 13:16:00,85.9,67.0,30.05,SE,125,7.0,14.0,53,0.00,,,0.00,weatherlink.com 1.10,2013-08-20 18:16:00,
2013-08-20 13:31:00,87.3,67.0,30.04,SE,137,2.0,11.0,51,0.00,,,0.00,weatherlink.com 1.10,2013-08-20 18:31:00,
2013-08-20 13:46:00,86.5,66.0,30.04,SSE,165,10.0,12.0,51,0.00,,,0.00,weatherlink.com 1.10,2013-08-20 18:46:00,
2013-08-20 14:01:00,86.4,66.0,30.04,SE,141,3.0,14.0,50,0.00,,,0.00,weatherlink.com 1.10,2013-08-20 19:01:00,
2013-08-20 14:16:00,87.5,66.0,30.04,South,177,12.0,15.0,49,0.00,,,0.00,weatherlink.com 1.10,2013-08-20 19:16:00,
2013-08-20 14:31:00,87.8,66.0,30.03,SSW,192,4.0,10.0,48,0.00,,,0.00,weatherlink.com 1.10,2013-08-20 19:31:00,
2013-08-20 14:46:00,88.9,66.0,30.03,South,170,3.0,10.0,47,0.00,,,0.00,weatherlink.com 1.10,2013-08-20 19:46:00,
2013-08-20 15:01:00,88.1,65.0,30.02,SSE,149,5.0,13.0,47,0.00,,,0.00,weatherlink.com 1.10,2013-08-20 20:01:00,
2013-08-20 15:16:00,88.2,65.0,30.02,SSE,165,4.0,9.0,47,0.00,,,0.00,weatherlink.com 1.10,2013-08-20 20:16:00,
2013-08-20 15:32:00,87.8,65.0,30.02,South,169,2.0,12.0,47,0.00,,,0.00,weatherlink.com 1.10,2013-08-20 20:32:00,
2013-08-20 15:47:00,89.9,66.0,30.01,SSE,153,9.0,14.0,45,0.00,,,0.00,weatherlink.com 1.10,2013-08-20 20:47:00,
2013-08-20 16:02:00,87.9,65.0,30.01,SE,140,8.0,14.0,46,0.00,,,0.00,weatherlink.com 1.10,2013-08-20 21:02:00,
2013-08-20 16:17:00,87.8,64.0,30.01,SSE,165,8.0,14.0,45,0.00,,,0.00,weatherlink.com 1.10,2013-08-20 21:17:00,
2013-08-20 16:32:00,87.1,65.0,30.01,South,173,2.0,13.0,48,0.00,,,0.00,weatherlink.com 1.10,2013-08-20 21:32:00,
2013-08-20 16:47:00,88.0,66.0,30.00,SSE,148,4.0,10.0,48,0.00,,,0.00,weatherlink.com 1.10,2013-08-20 21:47:00,
2013-08-20 17:02:00,87.7,66.0,30.00,South,178,5.0,11.0,48,0.00,,,0.00,weatherlink.com 1.10,2013-08-20 22:02:00,
2013-08-20 17:17:00,87.8,66.0,30.00,South,180,7.0,10.0,48,0.00,,,0.00,weatherlink.com 1.10,2013-08-20 22:17:00,
2013-08-20 17:32:00,86.3,65.0,30.00,SSE,161,3.0,10.0,49,0.00,,,0.00,weatherlink.com 1.10,2013-08-20 22:32:00,
2013-08-20 17:47:00,85.8,66.0,30.00,SSE,147,4.0,10.0,51,0.00,,,0.00,weatherlink.com 1.10,2013-08-20 22:47:00,
2013-08-20 18:02:00,84.9,66.0,30.00,SE,142,2.0,9.0,54,0.00,,,0.00,weatherlink.com 1.10,2013-08-20 23:02:00,
2013-08-20 18:17:00,84.9,67.0,30.00,SSE,152,5.0,7.0,55,0.00,,,0.00,weatherlink.com 1.10,2013-08-20 23:17:00,
2013-08-20 18:32:00,84.4,67.0,30.00,SSE,150,1.0,6.0,56,0.00,,,0.00,weatherlink.com 1.10,2013-08-20 23:32:00,
2013-08-20 18:47:00,84.6,68.0,30.00,SSE,150,4.0,4.0,58,0.00,,,0.00,weatherlink.com 1.10,2013-08-20 23:47:00,
2013-08-20 19:02:00,84.8,68.0,30.00,SSE,150,1.0,4.0,57,0.00,,,0.00,weatherlink.com 1.10,2013-08-21 00:02:00,
2013-08-20 19:17:00,82.8,68.0,30.00,SSE,150,0.0,4.0,61,0.00,,,0.00,weatherlink.com 1.10,2013-08-21 00:17:00,
2013-08-20 19:32:00,81.2,67.0,30.00,SSE,150,1.0,5.0,63,0.00,,,0.00,weatherlink.com 1.10,2013-08-21 00:32:00,
2013-08-20 19:47:00,80.2,67.0,30.00,SSE,150,3.0,4.0,65,0.00,,,0.00,weatherlink.com 1.10,2013-08-21 00:47:00,
2013-08-20 20:02:00,79.2,67.0,30.00,SSE,150,1.0,4.0,67,0.00,,,0.00,weatherlink.com 1.10,2013-08-21 01:02:00,
2013-08-20 20:17:00,78.2,67.0,30.01,SSE,150,1.0,2.0,69,0.00,,,0.00,weatherlink.com 1.10,2013-08-21 01:17:00,
2013-08-20 20:32:00,77.4,67.0,30.01,SSE,150,0.0,3.0,71,0.00,,,0.00,weatherlink.com 1.10,2013-08-21 01:32:00,
2013-08-20 20:47:00,76.8,67.0,30.01,SSE,150,1.0,3.0,72,0.00,,,0.00,weatherlink.com 1.10,2013-08-21 01:47:00,
2013-08-20 21:02:00,76.3,68.0,30.02,SSE,150,0.0,3.0,75,0.00,,,0.00,weatherlink.com 1.10,2013-08-21 02:02:00,
2013-08-20 21:17:00,75.1,67.0,30.02,SSE,150,2.0,4.0,76,0.00,,,0.00,weatherlink.com 1.10,2013-08-21 02:17:00,
2013-08-20 21:32:00,74.5,67.0,30.02,SSE,150,1.0,5.0,76,0.00,,,0.00,weatherlink.com 1.10,2013-08-21 02:32:00,
2013-08-20 21:47:00,74.2,66.0,30.02,SSE,150,0.0,3.0,76,0.00,,,0.00,weatherlink.com 1.10,2013-08-21 02:47:00,
2013-08-20 22:02:00,73.9,66.0,30.03,SSE,150,1.0,3.0,77,0.00,,,0.00,weatherlink.com 1.10,2013-08-21 03:02:00,
2013-08-20 22:17:00,73.5,66.0,30.03,SSE,150,3.0,3.0,77,0.00,,,0.00,weatherlink.com 1.10,2013-08-21 03:17:00,
2013-08-20 22:32:00,73.1,66.0,30.03,SSE,150,1.0,3.0,78,0.00,,,0.00,weatherlink.com 1.10,2013-08-21 03:32:00,
2013-08-20 22:47:00,72.8,66.0,30.03,SSE,150,0.0,3.0,78,0.00,,,0.00,weatherlink.com 1.10,2013-08-21 03:47:00,
2013-08-20 23:02:00,72.5,66.0,30.03,SSE,150,0.0,2.0,79,0.00,,,0.00,weatherlink.com 1.10,2013-08-21 04:02:00,
2013-08-20 23:17:00,72.4,66.0,30.03,SSE,150,0.0,2.0,79,0.00,,,0.00,weatherlink.com 1.10,2013-08-21 04:17:00,
2013-08-20 23:32:00,72.1,66.0,30.03,SSE,150,0.0,2.0,80,0.00,,,0.00,weatherlink.com 1.10,2013-08-21 04:32:00,
2013-08-20 23:47:00,71.8,65.0,30.03,SSE,150,0.0,2.0,80,0.00,,,0.00,weatherlink.com 1.10,2013-08-21 04:47:00,